User: anonymous   Login
Location: Theydon Bois
(51.6750°N, 0.1050°E)
Time: 00:47:43
(UTC+00:00)
Language:

Cosmos 1295 Rocket - Orbit

View from above orbital plane
View from above orbital plane
View from above satellite
View from above satellite

Ground track
Ground track

The orbit data is extracted from the following two-line orbital elements,

1 12682U 81077B   18019.65901781 +.00000120 +00000-0 +10266-3 0  9999
2 12682 082.9149 214.2202 0035233 096.6558 263.8612 13.78540474832422
Epoch (UTC): 19 January 2018 15:48:59
Eccentricity: 0.0035233
inclination: 82.9149°
perigee height: 943 km
apogee height: 995 km
right ascension of ascending node: 214.2202°
argument of perigee: 96.6558°
revolutions per day: 13.78540474
mean anomaly at epoch: 263.8612°
orbit number at epoch: 83242

The dashed part of the orbit path shows where the satellite is in the earth's shadow,  

DLR